| time (UTC) | temp F | wind direction | speed knots | gust knots | rain 1hr in | rain 24hr in | rain mn in | humidity % | barometer mb |
| 20260506100027 | 74 | 155 | 4.3 | 12.2 | 0.00 | 0.00 | 0.00 | 46 | 1011.2 |
| 20260506094528 | 73 | 242 | 4.3 | 11.3 | 0.00 | 0.00 | 0.00 | 48 | 1011.3 |
| 20260506093021 | 72 | 265 | 4.3 | 11.3 | 0.00 | 0.00 | 0.00 | 50 | 1011.3 |
| 20260506091520 | 72 | 257 | 2.6 | 12.2 | 0.00 | 0.00 | 0.00 | 51 | 1011.4 |
| 20260506090023 | 71 | 190 | 4.3 | 11.3 | 0.00 | 0.00 | 0.00 | 52 | 1011.5 |
| 20260506084606 | 71 | 190 | 4.3 | 13.0 | 0.00 | 0.00 | 0.00 | 52 | 1011.5 |
| 20260506083029 | 70 | 191 | 2.6 | 9.6 | 0.00 | 0.00 | 0.00 | 54 | 1011.4 |
| 20260506081523 | 70 | 165 | 2.6 | 8.7 | 0.00 | 0.00 | 0.00 | 55 | 1011.4 |
| 20260506073028 | 67 | 252 | 3.5 | 8.7 | 0.00 | 0.00 | 0.00 | 58 | 1011.7 |
| 20260506071517 | 66 | 217 | 2.6 | 7.8 | 0.00 | 0.00 | 0.00 | 60 | 1011.7 |
| 20260506061512 | 59 | 229 | 3.5 | 7.8 | 0.00 | 0.00 | 0.00 | 70 | 1011.8 |
| 20260506044519 | 56 | 244 | 0.9 | 5.2 | 0.00 | 0.00 | 0.00 | 72 | 1011.0 |
| 20260506043015 | 54 | 160 | 1.7 | 4.3 | 0.00 | 0.00 | 0.00 | 75 | 1010.8 |
| 20260506041515 | 52 | 178 | 0.9 | 4.3 | 0.00 | 0.00 | 0.00 | 76 | 1010.7 |
| 20260506040014 | 52 | 167 | 0.9 | 2.6 | 0.00 | 0.00 | 0.00 | 76 | 1010.3 |
| 20260506034520 | 52 | 151 | 0.9 | 2.6 | 0.00 | 0.00 | 0.00 | 75 | 1010.2 |
| 20260506033015 | 52 | 177 | 1.7 | 4.3 | 0.00 | 0.00 | 0.00 | 75 | 1010.2 |
| 20260506031518 | 52 | 182 | 0.0 | 1.7 | 0.00 | 0.00 | 0.00 | 75 | 1010.3 |
| 20260506030018 | 53 | 182 | 0.0 | 2.6 | 0.00 | 0.00 | 0.00 | 74 | 1010.3 |
| 20260506024516 | 53 | 150 | 0.9 | 3.5 | 0.00 | 0.00 | 0.00 | 73 | 1010.3 |
| 20260506023029 | 53 | 176 | 0.9 | 1.7 | 0.00 | 0.00 | 0.00 | 73 | 1010.4 |
| 20260506021532 | 53 | 221 | 0.0 | 1.7 | 0.00 | 0.00 | 0.00 | 74 | 1010.3 |
| 20260506020025 | 53 | 194 | 0.0 | 1.7 | 0.00 | 0.00 | 0.00 | 73 | 1010.4 |
| 20260506014520 | 54 | 192 | 0.0 | 0.9 | 0.00 | 0.00 | 0.00 | 72 | 1010.5 |
| 20260506013027 | 54 | 184 | 0.0 | 1.7 | 0.00 | 0.00 | 0.00 | 71 | 1010.6 |
| 20260506011519 | 54 | 181 | 0.0 | 1.7 | 0.00 | 0.00 | 0.00 | 70 | 1010.7 |
| 20260506010020 | 54 | 193 | 0.0 | 1.7 | 0.00 | 0.00 | 0.00 | 70 | 1010.6 |
| 20260506004525 | 54 | 238 | 0.0 | 1.7 | 0.00 | 0.00 | 0.00 | 71 | 1010.6 |
| 20260506003021 | 52 | 191 | 0.0 | 2.6 | 0.00 | 0.00 | 0.00 | 75 | 1010.6 |
| 20260506001520 | 50 | 143 | 0.0 | 1.7 | 0.00 | 0.00 | 0.00 | 75 | 1010.4 |
| 20260506000023 | 51 | 144 | 0.0 | 1.7 | 0.00 | 0.00 | 0.00 | 73 | 1010.4 |
| 20260505234524 | 53 | 144 | 0.0 | 1.7 | 0.00 | 0.00 | 0.00 | 70 | 1010.3 |
| 20260505233022 | 54 | 163 | 0.0 | 1.7 | 0.00 | 0.00 | 0.00 | 66 | 1010.2 |
| 20260505231535 | 55 | 200 | 0.0 | 1.7 | 0.00 | 0.00 | 0.00 | 65 | 1010.3 |
| 20260505230027 | 58 | 200 | 0.0 | 1.7 | 0.00 | 0.00 | 0.00 | 61 | 1010.3 |
| 20260505224524 | 58 | 254 | 0.0 | 3.5 | 0.00 | 0.00 | 0.00 | 60 | 1010.4 |
| 20260505223024 | 57 | 252 | 0.9 | 3.5 | 0.00 | 0.00 | 0.00 | 62 | 1010.5 |
| 20260505221527 | 52 | 230 | 0.9 | 2.6 | 0.00 | 0.00 | 0.00 | 70 | 1010.4 |
| 20260505220024 | 51 | 234 | 0.0 | 1.7 | 0.00 | 0.00 | 0.00 | 75 | 1010.4 |
| 20260505214527 | 51 | 234 | 0.0 | 1.7 | 0.00 | 0.00 | 0.00 | 74 | 1010.4 |
| 20260505213016 | 52 | 234 | 0.0 | 1.7 | 0.00 | 0.00 | 0.00 | 74 | 1010.4 |
| 20260505211516 | 52 | 234 | 0.0 | 1.7 | 0.00 | 0.00 | 0.00 | 74 | 1010.2 |
| 20260505210020 | 53 | 234 | 0.0 | 1.7 | 0.00 | 0.00 | 0.00 | 73 | 1010.2 |
| 20260505204527 | 53 | 234 | 0.0 | 1.7 | 0.00 | 0.00 | 0.00 | 72 | 1010.2 |
| 20260505203012 | 54 | 234 | 0.0 | 1.7 | 0.00 | 0.00 | 0.00 | 71 | 1010.2 |
| 20260505201528 | 54 | 234 | 0.0 | 1.7 | 0.00 | 0.00 | 0.00 | 69 | 1010.1 |
| 20260505200017 | 55 | 234 | 0.0 | 1.7 | 0.00 | 0.00 | 0.00 | 67 | 1010.0 |
| 20260505194526 | 56 | 233 | 0.0 | 1.7 | 0.00 | 0.00 | 0.00 | 65 | 1009.9 |
| 20260505193031 | 57 | 213 | 0.0 | 1.7 | 0.00 | 0.00 | 0.00 | 62 | 1009.9 |
| 20260505191514 | 58 | 213 | 0.0 | 1.7 | 0.00 | 0.00 | 0.00 | 59 | 1009.9 |
| 20260505190018 | 60 | 213 | 0.0 | 0.0 | 0.00 | 0.00 | 0.00 | 55 | 1009.9 |
| 20260505184525 | 62 | 213 | 0.0 | 0.0 | 0.00 | 0.00 | 0.00 | 51 | 1009.9 |
| 20260505183028 | 66 | 213 | 0.0 | 1.7 | 0.00 | 0.00 | 0.00 | 45 | 1009.9 |
| 20260505181510 | 69 | 213 | 0.0 | 1.7 | 0.00 | 0.00 | 0.00 | 40 | 1009.8 |
| 20260505180020 | 72 | 199 | 0.0 | 2.6 | 0.00 | 0.00 | 0.00 | 36 | 1009.8 |
| 20260505174528 | 74 | 192 | 0.9 | 6.1 | 0.00 | 0.00 | 0.00 | 32 | 1009.8 |
| 20260505173024 | 76 | 168 | 0.0 | 2.6 | 0.00 | 0.00 | 0.00 | 30 | 1009.5 |
| 20260505171525 | 78 | 150 | 0.0 | 2.6 | 0.00 | 0.00 | 0.00 | 28 | 1009.3 |
| 20260505170019 | 79 | 153 | 0.9 | 2.6 | 0.00 | 0.00 | 0.00 | 26 | 1009.4 |
| 20260505164522 | 80 | 134 | 0.9 | 3.5 | 0.00 | 0.00 | 0.00 | 25 | 1009.4 |
| 20260505163029 | 80 | 186 | 1.7 | 6.1 | 0.00 | 0.00 | 0.00 | 25 | 1009.6 |
| 20260505161526 | 81 | 166 | 2.6 | 7.0 | 0.00 | 0.00 | 0.00 | 24 | 1009.7 |
| 20260505153018 | 78 | 150 | 1.7 | 7.0 | 0.00 | 0.00 | 0.00 | 25 | 1010.1 |
| 20260505151526 | 79 | 119 | 2.6 | 6.1 | 0.00 | 0.00 | 0.00 | 24 | 1010.2 |
| 20260505124526 | 81 | 177 | 3.5 | 12.2 | 0.00 | 0.00 | 0.00 | 1011.6 | |
| 20260505123015 | 81 | 141 | 3.5 | 8.7 | 0.00 | 0.00 | 0.00 | 1011.9 | |
| 20260505121520 | 81 | 184 | 2.6 | 9.6 | 0.00 | 0.00 | 0.00 | 1012.2 | |
| 20260505120026 | 81 | 154 | 2.6 | 7.8 | 0.00 | 0.00 | 0.00 | 23 | 1012.3 |
| 20260505114527 | 81 | 175 | 4.3 | 7.8 | 0.00 | 0.00 | 0.00 | 1012.5 | |
| 20260505113017 | 80 | 134 | 3.5 | 10.4 | 0.00 | 0.00 | 0.00 | 24 | 1012.6 |
| 20260505111520 | 80 | 287 | 4.3 | 9.6 | 0.00 | 0.00 | 0.00 | 24 | 1012.8 |
| 20260505101519 | 78 | 178 | 3.5 | 9.6 | 0.00 | 0.00 | 0.00 | 27 | 1013.5 |